When you browse on this site, cookies collect data to enhance your experience and personalize the content and advertising you see.
Visit our Privacy Policy to learn more. By continuing to use the site, you agree to this use of cookies and data.

Meteo pe oră la Ghent

Astăzi, 5 Iulie, Duminică

Timp Temperatura Precipitaţii Vânt Presiune Umiditate
00:00 +18°C° 0 mm 7 m/s 759 mmHg 85%
01:00 +18°C° 0 mm 7 m/s 758 mmHg 83%
02:00 +18°C° 0 mm 7 m/s 758 mmHg 82%
03:00 +18°C° 0 mm 8 m/s 758 mmHg 81%
04:00 +18°C° 0 mm 8 m/s 758 mmHg 81%
05:00 +18°C° 0 mm 8 m/s 758 mmHg 81%
06:00 +18°C° 0 mm 7 m/s 758 mmHg 81%
07:00 +20°C° 0 mm 8 m/s 758 mmHg 78%
08:00 +21°C° 0 mm 8 m/s 758 mmHg 76%
09:00 +21°C° 0 mm 9 m/s 758 mmHg 73%
10:00 +21°C° 0.1 mm 9 m/s 758 mmHg 73%
11:00 +21°C° 0.1 mm 9 m/s 758 mmHg 73%
12:00 +21°C° 0.1 mm 9 m/s 758 mmHg 72%
13:00 +22°C° 0 mm 9 m/s 758 mmHg 69%
14:00 +22°C° 0 mm 9 m/s 758 mmHg 67%
15:00 +22°C° 0 mm 9 m/s 758 mmHg 64%
16:00 +21°C° 0 mm 9 m/s 758 mmHg 63%
17:00 +19°C° 0 mm 9 m/s 758 mmHg 63%
18:00 +20°C° 0 mm 8 m/s 758 mmHg 63%
19:00 +17°C° 0 mm 8 m/s 759 mmHg 66%
20:00 +16°C° 0 mm 7 m/s 759 mmHg 69%
21:00 +15°C° 0 mm 6 m/s 760 mmHg 72%
22:00 +14°C° 0 mm 6 m/s 760 mmHg 70%
23:00 +14°C° 0 mm 6 m/s 760 mmHg 68%

Mâine, 6 Iulie, Luni

Timp Temperatura Precipitaţii Vânt Presiune Umiditate
00:00 +14°C° 0 mm 6 m/s 760 mmHg 66%
01:00 +13°C° 0 mm 6 m/s 760 mmHg 67%
02:00 +13°C° 0 mm 6 m/s 760 mmHg 68%
03:00 +12°C° 0 mm 5 m/s 760 mmHg 68%
04:00 +13°C° 0 mm 6 m/s 760 mmHg 70%
05:00 +13°C° 0 mm 6 m/s 760 mmHg 71%
06:00 +14°C° 0 mm 6 m/s 760 mmHg 72%
07:00 +14°C° 0.1 mm 7 m/s 761 mmHg 69%
08:00 +15°C° 0.1 mm 7 m/s 761 mmHg 67%
09:00 +16°C° 0.1 mm 7 m/s 761 mmHg 64%
10:00 +17°C° 0.2 mm 7 m/s 761 mmHg 61%
11:00 +17°C° 0.2 mm 8 m/s 762 mmHg 59%
12:00 +18°C° 0.2 mm 8 m/s 762 mmHg 56%
13:00 +18°C° 0.1 mm 7 m/s 762 mmHg 56%
14:00 +18°C° 0.1 mm 7 m/s 763 mmHg 56%
15:00 +18°C° 0.1 mm 7 m/s 763 mmHg 56%
16:00 +17°C° 0.1 mm 6 m/s 764 mmHg 61%
17:00 +17°C° 0.1 mm 5 m/s 764 mmHg 66%
18:00 +17°C° 0.1 mm 4 m/s 764 mmHg 70%
19:00 +14°C° 0 mm 3 m/s 765 mmHg 74%
20:00 +14°C° 0 mm 2 m/s 766 mmHg 79%
21:00 +13°C° 0 mm 1 m/s 766 mmHg 83%
22:00 +12°C° 0 mm 1 m/s 766 mmHg 84%
23:00 +12°C° 0 mm 1 m/s 767 mmHg 84%

Poimâine, 7 Iulie, Marţi

Timp Temperatura Precipitaţii Vânt Presiune Umiditate
00:00 +12°C° 0 mm 1 m/s 767 mmHg 84%
01:00 +11°C° 0 mm 1 m/s 766 mmHg 85%
02:00 +11°C° 0 mm 1 m/s 766 mmHg 85%
03:00 +11°C° 0 mm 1 m/s 766 mmHg 86%
04:00 +12°C° 0 mm 1 m/s 766 mmHg 82%
05:00 +13°C° 0 mm 2 m/s 766 mmHg 79%
06:00 +14°C° 0 mm 2 m/s 766 mmHg 76%
07:00 +14°C° 0 mm 3 m/s 766 mmHg 68%
08:00 +17°C° 0 mm 3 m/s 765 mmHg 61%
09:00 +19°C° 0 mm 4 m/s 765 mmHg 54%
10:00 +20°C° 0 mm 4 m/s 765 mmHg 52%
11:00 +21°C° 0 mm 4 m/s 764 mmHg 50%
12:00 +22°C° 0 mm 4 m/s 764 mmHg 48%
13:00 +22°C° 0 mm 4 m/s 764 mmHg 51%
14:00 +21°C° 0 mm 4 m/s 763 mmHg 54%
15:00 +21°C° 0 mm 5 m/s 763 mmHg 57%
16:00 +21°C° 0 mm 5 m/s 763 mmHg 58%
17:00 +20°C° 0 mm 5 m/s 763 mmHg 59%
18:00 +20°C° 0 mm 4 m/s 762 mmHg 60%
19:00 +19°C° 0 mm 4 m/s 762 mmHg 62%
20:00 +17°C° 0 mm 4 m/s 762 mmHg 63%
21:00 +15°C° 0 mm 4 m/s 762 mmHg 65%
22:00 +15°C° 0 mm 5 m/s 762 mmHg 67%
23:00 +15°C° 0 mm 5 m/s 762 mmHg 69%

8 Iulie, Miercuri

Timp Temperatura Precipitaţii Vânt Presiune Umiditate
00:00 +15°C° 0 mm 5 m/s 762 mmHg 71%
01:00 +14°C° 0 mm 5 m/s 761 mmHg 75%
02:00 +14°C° 0 mm 5 m/s 761 mmHg 78%
03:00 +14°C° 0 mm 5 m/s 761 mmHg 82%
04:00 +15°C° 0 mm 5 m/s 761 mmHg 82%
05:00 +15°C° 0 mm 5 m/s 761 mmHg 83%
06:00 +16°C° 0 mm 5 m/s 761 mmHg 83%
07:00 +17°C° 0.1 mm 5 m/s 761 mmHg 78%
08:00 +19°C° 0.1 mm 5 m/s 762 mmHg 74%
09:00 +20°C° 0.1 mm 4 m/s 762 mmHg 69%
10:00 +20°C° 0.1 mm 5 m/s 762 mmHg 66%
11:00 +21°C° 0.1 mm 5 m/s 762 mmHg 63%
12:00 +22°C° 0.1 mm 5 m/s 763 mmHg 60%
13:00 +22°C° 0.1 mm 5 m/s 763 mmHg 61%
14:00 +21°C° 0.1 mm 4 m/s 763 mmHg 61%
15:00 +21°C° 0.1 mm 4 m/s 763 mmHg 61%
16:00 +20°C° 0 mm 4 m/s 763 mmHg 64%
17:00 +20°C° 0 mm 4 m/s 764 mmHg 67%
18:00 +19°C° 0 mm 4 m/s 764 mmHg 69%
19:00 +17°C° 0 mm 3 m/s 764 mmHg 74%
20:00 +16°C° 0 mm 3 m/s 764 mmHg 79%
21:00 +15°C° 0 mm 2 m/s 765 mmHg 84%
22:00 +14°C° 0 mm 2 m/s 765 mmHg 85%
23:00 +14°C° 0 mm 2 m/s 765 mmHg 86%

9 Iulie, Joi

Timp Temperatura Precipitaţii Vânt Presiune Umiditate
00:00 +13°C° 0 mm 1 m/s 765 mmHg 87%
01:00 +13°C° 0 mm 1 m/s 764 mmHg 88%
02:00 +12°C° 0 mm 1 m/s 764 mmHg 88%
03:00 +11°C° 0 mm 0 m/s 764 mmHg 89%
04:00 +12°C° 0 mm 0 m/s 764 mmHg 86%
05:00 +13°C° 0 mm 0 m/s 764 mmHg 83%
06:00 +14°C° 0 mm 0 m/s 764 mmHg 79%
07:00 +18°C° 0 mm 1 m/s 764 mmHg 72%
08:00 +19°C° 0 mm 1 m/s 764 mmHg 64%
09:00 +20°C° 0 mm 2 m/s 764 mmHg 56%
10:00 +21°C° 0 mm 2 m/s 763 mmHg 53%
11:00 +23°C° 0 mm 2 m/s 763 mmHg 51%
12:00 +24°C° 0 mm 2 m/s 762 mmHg 48%
13:00 +25°C° 0 mm 3 m/s 762 mmHg 49%
14:00 +26°C° 0 mm 4 m/s 761 mmHg 49%
15:00 +26°C° 0 mm 4 m/s 761 mmHg 50%
16:00 +26°C° 0 mm 4 m/s 760 mmHg 54%
17:00 +25°C° 0 mm 4 m/s 760 mmHg 59%
18:00 +23°C° 0 mm 4 m/s 759 mmHg 63%
19:00 +22°C° 0 mm 5 m/s 759 mmHg 66%
20:00 +20°C° 0 mm 5 m/s 759 mmHg 68%
21:00 +17°C° 0 mm 5 m/s 759 mmHg 71%
22:00 +17°C° 0 mm 5 m/s 759 mmHg 76%
23:00 +16°C° 0 mm 6 m/s 759 mmHg 81%

10 Iulie, Vineri

Timp Temperatura Precipitaţii Vânt Presiune Umiditate
00:00 +16°C° 0 mm 6 m/s 759 mmHg 86%
01:00 +15°C° 0 mm 6 m/s 758 mmHg 81%
02:00 +15°C° 0 mm 6 m/s 758 mmHg 77%
03:00 +15°C° 0 mm 6 m/s 758 mmHg 72%
04:00 +14°C° 0 mm 6 m/s 758 mmHg 71%
05:00 +14°C° 0 mm 6 m/s 759 mmHg 70%
06:00 +14°C° 0 mm 6 m/s 759 mmHg 69%
07:00 +15°C° 0 mm 7 m/s 759 mmHg 66%
08:00 +15°C° 0 mm 7 m/s 759 mmHg 62%
09:00 +16°C° 0 mm 8 m/s 759 mmHg 59%
10:00 +17°C° 0 mm 8 m/s 760 mmHg 58%
11:00 +17°C° 0 mm 8 m/s 760 mmHg 57%
12:00 +18°C° 0 mm 8 m/s 760 mmHg 56%
13:00 +18°C° 0.1 mm 7 m/s 761 mmHg 60%
14:00 +17°C° 0.1 mm 7 m/s 761 mmHg 64%
15:00 +17°C° 0.1 mm 6 m/s 761 mmHg 68%
16:00 +16°C° 0.1 mm 5 m/s 762 mmHg 68%
17:00 +16°C° 0.1 mm 5 m/s 762 mmHg 69%
18:00 +17°C° 0.1 mm 4 m/s 762 mmHg 70%
19:00 +14°C° 0 mm 3 m/s 763 mmHg 73%
20:00 +13°C° 0 mm 3 m/s 763 mmHg 75%
21:00 +13°C° 0 mm 2 m/s 764 mmHg 78%
22:00 +13°C° 0 mm 2 m/s 764 mmHg 79%
23:00 +12°C° 0 mm 2 m/s 765 mmHg 80%
Arată mai mult